EW8371 Weather Reports


Display with metric or nautical units.
time (UTC)temp
F
wind
direction
speed
MPH
gust
MPH
rain 1hr
in
rain 24hr
in
rain mn
in
humidity
%
barometer
mb
20260904190049 75 11 4.0 12.0 0.00 0.00 0.00 55 1009.0
20260904184604 75 5 4.0 11.0 0.00 0.00 0.00 54 1009.2
20260904183043 76 11 3.0 9.0 0.00 0.00 0.00 55 1009.3
20260904181539 75 344 4.0 10.0 0.00 0.00 0.00 56 1009.3
20260904180039 75 302 3.0 8.0 0.00 0.00 0.00 57 1009.2
20260904174607 73 258 6.0 12.0 0.00 0.00 0.00 58 1009.6
20260904173032 74 308 6.0 13.0 0.00 0.00 0.00 58 1009.8
20260904171533 74 349 6.0 12.0 0.00 0.00 0.00 58 1009.7
20260904170044 73 336 3.0 11.0 0.00 0.00 0.00 58 1010.0
20260904164528 73 321 4.0 10.0 0.00 0.00 0.00 58 1009.7
20260904163032 73 314 3.0 9.0 0.00 0.00 0.00 56 1009.7
20260904161524 73 227 4.0 12.0 0.00 0.00 0.00 57 1009.8
20260904160022 73 329 2.0 8.0 0.00 0.00 0.00 55 1010.0
20260904154518 72 15 6.0 11.0 0.00 0.00 0.00 55 1010.0
20260904153015 72 350 6.0 13.0 0.00 0.00 0.00 55 1010.2
20260904151514 72 273 4.0 12.0 0.00 0.00 0.00 52 1010.2
20260904150014 72 26 4.0 12.0 0.00 0.00 0.00 46 1010.2
20260904144511 70 14 6.0 11.0 0.00 0.00 0.00 38 1010.4
20260904143010 70 258 4.0 10.0 0.00 0.00 0.00 23 1010.5
20260904141509 69 53 3.0 11.0 0.00 0.00 0.00 8 1010.6
20260904140008 69 304 1.0 9.0 0.00 0.00 0.00 1 1010.4
20260904134505 69 315 2.0 8.0 0.00 0.00 0.00 1 1010.2
20260904133005 68 15 1.0 5.0 0.00 0.00 0.00 1 1010.3
20260904131504 66 36 2.0 8.0 0.00 0.00 0.00 1 1010.3
20260904130001 65 13 2.0 4.0 0.00 0.00 0.00 1 1010.5
20260904124557 64 304 2.0 6.0 0.00 0.00 0.00 1 1010.5
20260904123050 63 299 1.0 3.0 0.00 0.00 0.00 1 1010.6
20260904121546 63 43 0.0 2.0 0.00 0.00 0.00 1 1010.6
20260904120049 63 88 0.0 1.0 0.00 0.00 0.00 1 1010.5
20260904114536 62 142 0.0 1.0 0.00 0.00 0.00 1 1010.3
20260904113032 61 143 0.0 0.0 0.00 0.00 0.00 1 1010.3
20260904111525 60 144 0.0 0.0 0.00 0.00 0.00 1 1010.1
20260904110021 61 144 0.0 0.0 0.00 0.00 0.00 1 1010.0
20260904104550 61 133 0.0 1.0 0.00 0.00 0.00 1 1009.6
20260904103044 61 163 0.0 2.0 0.00 0.00 0.00 1 1009.6
20260904101512 61 161 0.0 1.0 0.00 0.00 0.00 1 1009.4
20260904100005 62 163 0.0 1.0 0.00 0.00 0.00 1 1009.4
20260904094604 62 173 1.0 3.0 0.00 0.00 0.00 1 1009.3
20260904093103 62 157 0.0 3.0 0.00 0.00 0.00 1 1009.4
20260904091550 62 169 0.0 1.0 0.00 0.00 0.00 1 1009.1
20260904090044 62 167 0.0 0.0 0.00 0.00 0.00 1 1009.0
20260904084511 63 171 0.0 1.0 0.00 0.00 0.00 1 1008.9
20260904083006 63 171 1.0 3.0 0.00 0.00 0.00 1 1008.9
20260904081508 63 155 0.0 1.0 0.00 0.00 0.00 1 1008.9
20260904080004 63 155 0.0 0.0 0.00 0.00 0.00 1 1008.7
20260904074558 63 155 0.0 0.0 0.00 0.00 0.00 1 1008.7
20260904073058 64 155 0.0 0.0 0.00 0.00 0.00 1 1008.5
20260904071554 64 155 0.0 0.0 0.00 0.00 0.00 1 1008.5
20260904070045 64 155 0.0 0.0 0.00 0.00 0.00 1 1008.6
20260904064538 64 155 0.0 0.0 0.00 0.00 0.00 1 1008.5
20260904063039 65 155 0.0 0.0 0.00 0.00 0.00 1 1008.7
20260904061531 65 155 0.0 0.0 0.00 0.00 0.00 1 1008.8
20260904060028 65 126 0.0 0.0 0.00 0.00 0.00 1 1009.1
20260904054526 65 126 0.0 0.0 0.00 0.00 0.00 1 1009.4
20260904053029 65 126 0.0 0.0 0.00 0.01 0.00 1 1009.4
20260904051525 65 126 0.0 0.0 0.00 0.01 0.00 1 1009.6
20260904050013 65 126 0.0 0.0 0.00 0.01 0.00 1 1009.6
20260904044508 65 126 0.0 0.0 0.00 0.01 0.00 1 1009.6
20260904043004 65 355 0.0 0.0 0.00 0.01 0.00 1 1009.3
20260904041606 65 355 0.0 0.0 0.00 0.01 0.00 1 1009.3
20260904040054 65 355 0.0 0.0 0.00 0.01 0.00 1 1009.6
20260904034549 65 351 0.0 0.0 0.00 0.01 0.00 1 1009.6
20260904033100 65 350 0.0 0.0 0.00 0.10 0.00 1 1009.7
20260904031540 65 351 0.0 0.0 0.00 0.10 0.00 1 1009.8
20260904030006 66 355 0.0 0.0 0.00 0.10 0.00 1 1009.8
20260904024502 66 275 0.0 0.0 0.00 0.10 0.00 1 1009.9
20260904023054 66 284 0.0 0.0 0.00 0.13 0.00 1 1009.8
20260904021550 67 286 0.0 0.0 0.00 0.13 0.00 1 1010.0
20260904020058 67 348 0.0 0.0 0.00 0.13 0.00 1 1010.4
20260904014610 67 350 0.0 0.0 0.00 0.13 0.00 1 1010.2
20260904013015 67 343 0.0 0.0 0.00 0.13 0.00 1 1010.2
20260904011503 68 355 0.0 0.0 0.00 0.13 0.00 1 1010.2
20260904010100 68 350 0.0 0.0 0.00 0.13 0.00 1 1010.0
20260904004552 68 351 0.0 0.0 0.00 0.13 0.00 1 1009.9
20260904003057 68 164 0.0 0.0 0.00 0.13 0.00 1 1009.8
20260904001543 69 157 0.0 0.0 0.00 0.13 0.00 1 1009.9
20260904000036 69 157 0.0 0.0 0.00 0.13 0.00 1 1009.8
20260903234532 70 163 0.0 0.0 0.00 0.13 0.00 1 1009.6
20260903233027 71 155 0.0 0.0 0.00 0.13 0.00 1 1009.8
20260903231523 71 147 0.0 2.0 0.00 0.13 0.00 1 1009.4
20260903230035 72 269 0.0 0.0 0.00 0.13 0.00 1 1009.4
20260903224512 72 259 0.0 0.0 0.00 0.13 0.00 7 1009.3
20260903223008 73 268 1.0 2.0 0.00 0.13 0.00 8 1009.3
20260903221502 74 23 0.0 2.0 0.00 0.13 0.00 20 1009.3
20260903220029 75 269 0.0 3.0 0.00 0.13 0.00 27 1009.1
20260903214537 77 264 1.0 2.0 0.00 0.13 0.00 45 1009.1
20260903213020 78 292 0.0 3.0 0.00 0.13 0.00 55 1009.1
20260903211511 77 283 0.0 3.0 0.00 0.13 0.00 54 1009.3
20260903210007 78 296 3.0 5.0 0.00 0.13 0.00 56 1009.3
20260903204505 79 321 2.0 8.0 0.00 0.13 0.00 57 1009.4
20260903203029 78 10 1.0 9.0 0.00 0.13 0.00 55 1009.4
20260903201531 79 5 2.0 8.0 0.00 0.13 0.00 53 1009.2
20260903200017 79 5 1.0 5.0 0.00 0.13 0.00 49 1009.3
20260903194513 79 9 3.0 9.0 0.00 0.13 0.00 48 1009.3
20260903193009 78 10 3.0 10.0 0.00 0.13 0.00 42 1009.5
20260903191506 79 9 1.0 8.0 0.00 0.13 0.00 51 1009.6